Location: Lake Crest
(37.6062°N, 88.9176°W)
Time: 10:23:07
(UTC+00:00)

SKYMED 2 - Pass Details

Date: 15 December 2019
Orbit: 621 x 623 km, 97.9° (Epoch: 27 January)

Event Time Altitude Azimuth Distance (km) Brightness Sun altitude
Exits shadow 00:22:29 - 3° (N) 2,198 6.2 -20.0°
Reaches altitude 10° 00:22:59 10° 1° (N) 1,999 6.0 -20.1°
Maximum altitude 00:27:11 50° 287° (WNW) 791 4.4 -20.9°
Drops below altitude 10° 00:31:22 10° 211° (SSW) 1,984 6.7 -21.7°
Sets 00:33:35 0° 206° (SSW) 2,886 7.6 -22.1°
